Lexington, KY

12:43 AM EST on February 27, 2017 (GMT -0500)
Blue Grass

Weather History for KLEX - February, 2014

Change the Weather History Date:

Tuesday, February 4, 2014

  Actual Average Record
Temperature  
Mean Temperature 27 °F 34 °F  
Max Temperature 34 °F 43 °F 70 °F (1962)
Min Temperature 20 °F 26 °F -10 °F (1996)
Degree Days  
Heating Degree Days 38 31  
Month to date heating degree days 114 124  
Since 1 July heating degree days 3048 2907  
Cooling Degree Days 0 0  
Month to date cooling degree days 0 0  
Year to date cooling degree days 0 0  
Moisture  
Dew Point 26 °F    
Average Humidity 88    
Maximum Humidity 92    
Minimum Humidity 84    
Precipitation  
Precipitation 1.23 in 0.12 in 1.85 in (1997)
Month to date precipitation 2.55 0.47  
Year to date precipitation 4.86 3.67  
Snow  
Snow 0.00 in 0.20 in 11.00 in (1998)
Month to date snowfall 4.1 0.8  
Since 1 July snowfall 14.7 7.5  
Snow Depth 0.00 in    
Sea Level Pressure  
Sea Level Pressure 30.14 in    
Wind  
Wind Speed 11 mph (NE)    
Max Wind Speed 24 mph    
Max Gust Speed 31 mph    
Visibility 3 miles    
Events Rain    
T = Trace of Precipitation, MM = Missing Value Source: NWS Daily Summary

Daily Weather History Graph

Daily Weather History Graph

Search for Another Location

Airport or City:

Trip Planner

Search our weather history database for the weather conditions in past years. The results will help you decide how hot, cold, wet, or windy it might be!

Date:

Astronomy

Feb. 04, 2014 Rise Set
Actual Time 7:40 AM EST 6:04 PM EST
Civil Twilight 7:12 AM EST 6:32 PM EST
Nautical Twilight 6:41 AM EST 7:03 PM EST
Astronomical Twilight 6:10 AM EST 7:34 PM EST
Moon 10:23 AM EST (2/4) 11:51 PM EST (2/4)
Length of Visible Light 11h 19m
Length of Day
10h 24m
Waxing Crescent, 29% of the Moon is Illuminated
Feb 4
Waxing Crescent
Feb 6
First Quarter
Feb 14
Full
Feb 22
Last Quarter
Mar 1
New

Hourly Weather History & Observations

Time (EST) Temp. Windchill Dew Point Humidity Pressure Visibility Wind Dir Wind Speed Gust Speed Precip Events Conditions
12:54 AM 19.9 °F 12.1 °F 17.1 °F 89% 30.33 in 3.0 mi NE 5.8 mph - N/A   Clear
1:54 AM 21.0 °F 12.4 °F 19.0 °F 92% 30.31 in 3.0 mi ENE 6.9 mph - N/A   Clear
2:54 AM 21.0 °F 12.4 °F 18.0 °F 88% 30.32 in 4.0 mi NE 6.9 mph - N/A   Clear
3:20 AM 21.9 °F 13.4 °F 19.0 °F 89% 30.27 in 5.0 mi ENE 6.9 mph - N/A   Mostly Cloudy
3:54 AM 21.9 °F 14.5 °F 19.0 °F 89% 30.30 in 5.0 mi NE 5.8 mph - N/A   Overcast
4:39 AM 23.0 °F 17.0 °F 19.9 °F 88% 30.27 in 5.0 mi NE 4.6 mph - N/A   Overcast
4:54 AM 23.0 °F 17.0 °F 19.9 °F 88% 30.32 in 5.0 mi North 4.6 mph - N/A   Overcast
5:54 AM 23.0 °F 13.9 °F 19.9 °F 88% 30.30 in 5.0 mi NE 8.1 mph - N/A   Overcast
6:54 AM 24.1 °F 17.0 °F 21.0 °F 88% 30.32 in 6.0 mi NE 5.8 mph - N/A   Overcast
7:54 AM 25.0 °F 19.3 °F 21.9 °F 88% 30.34 in 3.0 mi North 4.6 mph - N/A   Overcast
8:54 AM 26.1 °F 16.2 °F 23.0 °F 88% 30.32 in 3.0 mi NE 10.4 mph - N/A   Overcast
9:36 AM 27.0 °F 18.0 °F 25.0 °F 92% 30.28 in 2.5 mi ENE 9.2 mph - N/A   Overcast
9:54 AM 27.0 °F 16.7 °F 25.0 °F 92% 30.30 in 2.5 mi ENE 11.5 mph - N/A   Overcast
10:31 AM 28.0 °F 18.1 °F 25.0 °F 88% 30.25 in 2.0 mi ENE 11.5 mph - N/A   Overcast
10:54 AM 28.0 °F 17.5 °F 26.1 °F 92% 30.27 in 1.8 mi East 12.7 mph - N/A   Overcast
11:14 AM 28.9 °F 19.8 °F 26.1 °F 89% 30.22 in 2.0 mi East 10.4 mph - N/A   Overcast
11:29 AM 28.9 °F 20.4 °F 26.1 °F 89% 30.23 in 1.8 mi East 9.2 mph - N/A   Overcast
11:54 AM 28.9 °F 20.4 °F 27.0 °F 92% 30.26 in 1.8 mi East 9.2 mph - N/A   Overcast
12:42 PM 30.0 °F 21.7 °F 27.0 °F 88% 30.17 in 2.0 mi NE 9.2 mph - N/A   Overcast
12:54 PM 30.0 °F 23.2 °F 27.0 °F 88% 30.22 in 2.0 mi ENE 6.9 mph - N/A   Overcast
1:20 PM 30.9 °F 22.8 °F 28.0 °F 89% 30.15 in 2.0 mi NE 9.2 mph - N/A   Overcast
1:33 PM 30.9 °F 22.8 °F 28.0 °F 89% 30.16 in 1.8 mi ENE 9.2 mph - N/A   Overcast
1:45 PM 30.9 °F 23.5 °F 28.0 °F 89% 30.16 in 1.8 mi ENE 8.1 mph - N/A   Overcast
1:54 PM 30.9 °F 22.2 °F 28.0 °F 89% 30.18 in 2.0 mi ENE 10.4 mph - N/A   Overcast
2:22 PM 30.9 °F 21.2 °F 28.0 °F 89% 30.12 in 2.5 mi ENE 12.7 mph - N/A   Overcast
2:49 PM 30.2 °F 19.8 °F 28.4 °F 93% 30.08 in 3.0 mi NE 13.8 mph - N/A   Overcast
2:54 PM 30.9 °F 20.7 °F 28.0 °F 89% 30.12 in 3.0 mi NE 13.8 mph - N/A   Overcast
3:54 PM 30.9 °F 21.2 °F 27.0 °F 85% 30.11 in 4.0 mi NE 12.7 mph - N/A   Overcast
4:54 PM 30.9 °F 21.2 °F 27.0 °F 85% 30.12 in 5.0 mi NNE 12.7 mph - N/A   Overcast
5:27 PM 30.9 °F 20.7 °F 27.0 °F 85% 30.07 in 4.0 mi NNE 13.8 mph - 0.00 in Rain Light Freezing Rain
5:37 PM 30.9 °F 20.7 °F 27.0 °F 85% 30.05 in 2.5 mi NE 13.8 mph - 0.02 in Rain Light Freezing Rain
5:54 PM 30.9 °F 18.4 °F 28.0 °F 89% 30.02 in 3.0 mi NE 20.7 mph - 0.06 in Rain Light Freezing Rain
6:07 PM 30.9 °F 19.4 °F 28.0 °F 89% 30.00 in 4.0 mi ENE 17.3 mph - 0.01 in Rain Light Freezing Rain
6:54 PM 30.9 °F 18.1 °F 28.9 °F 92% 29.97 in 3.0 mi ENE 21.9 mph 27.6 mph 0.05 in Rain Light Freezing Rain
7:02 PM 30.9 °F 18.7 °F 28.9 °F 92% 29.95 in 4.0 mi NE 19.6 mph 27.6 mph 0.00 in Rain Light Freezing Rain
7:34 PM 32.0 °F 21.2 °F 28.9 °F 88% 29.95 in 2.5 mi NE 16.1 mph - 0.04 in Rain Light Freezing Rain
7:54 PM 32.0 °F 22.1 °F 28.9 °F 88% 30.00 in 2.5 mi NE 13.8 mph - 0.14 in Rain Light Freezing Rain
8:11 PM 32.0 °F 21.2 °F 28.9 °F 88% 29.96 in 3.0 mi NE 16.1 mph 21.9 mph 0.08 in Rain Light Freezing Rain
8:28 PM 32.0 °F 22.1 °F 28.9 °F 88% 29.96 in 2.5 mi NNE 13.8 mph - 0.18 in Rain Light Freezing Rain
8:45 PM 32.0 °F 21.2 °F 28.9 °F 88% 29.96 in 3.0 mi NE 16.1 mph - 0.29 in Rain Light Freezing Rain
8:54 PM 32.0 °F 20.8 °F 30.0 °F 92% 29.97 in 3.0 mi ENE 17.3 mph - 0.34 in Rain Light Freezing Rain
9:54 PM 32.0 °F 20.1 °F 30.0 °F 92% 29.90 in 3.0 mi East 19.6 mph 29.9 mph 0.29 in Rain Light Freezing Rain
10:29 PM 33.1 °F 22.6 °F 30.9 °F 92% 29.86 in 5.0 mi ESE 16.1 mph - 0.13 in Rain Rain
10:54 PM 34.0 °F 25.0 °F 32.0 °F 92% 29.86 in 5.0 mi East 12.7 mph - 0.21 in Rain Rain
11:13 PM 34.0 °F 26.6 °F 32.0 °F 92% 29.86 in 7.0 mi East 9.2 mph - 0.04 in Rain Rain
11:54 PM 34.0 °F 31.0 °F 32.0 °F 92% 29.88 in 5.0 mi NNE 3.5 mph - 0.12 in Rain Rain